This is the latest recevied weather packets stored in our database for station/object DK7LH-6. If no packets are shown the sender has not sent any weather packets the latest 10 day(s).
| Time | Temp. | Humidity | Pressure | Rain* | Wind** | Luminosity | Snow |
|---|---|---|---|---|---|---|---|
| 1778314549 | 11.11° C | 85% | 1020.2 hPa | 0 mm | - | 185 W/m² | - |
| 1778313619 | 10.56° C | 86% | 1020.2 hPa | 0 mm | - | 121 W/m² | - |
| 1778312751 | 10° C | 87% | 1020.2 hPa | 0 mm | - | 101 W/m² | - |
| 1778311821 | 9.44° C | 88% | 1020.1 hPa | 0 mm | - | 102 W/m² | - |
| 1778310953 | 9.44° C | 89% | 1020.1 hPa | 0 mm | - | 112 W/m² | - |
| 1778310023 | 8.89° C | 89% | 1020 hPa | 0 mm | - | 94 W/m² | - |
| 1778309156 | 8.33° C | 89% | 1020 hPa | 0 mm | - | 78 W/m² | - |
| 1778308226 | 7.78° C | 90% | 1020 hPa | 0 mm | - | 73 W/m² | - |
| 1778307357 | 7.78° C | 91% | 1019.9 hPa | 0 mm | - | 75 W/m² | - |
| 1778306427 | 7.22° C | 90% | 1020 hPa | 0 mm | - | 63 W/m² | - |
| 1778305559 | 7.78° C | 92% | 1019.8 hPa | 0 mm | - | 60 W/m² | - |
| 1778304629 | 6.67° C | 96% | 1019.9 hPa | 0 mm | - | 41 W/m² | - |
| 1778303761 | 6.11° C | 97% | 1019.8 hPa | 0 mm | - | 42 W/m² | - |
| 1778302831 | 6.11° C | 98% | 1019.7 hPa | 0 mm | - | 31 W/m² | - |
| 1778301963 | 5.56° C | 98% | 1019.7 hPa | 0 mm | - | 26 W/m² | - |
| 1778301033 | 5° C | 98% | 1019.8 hPa | 0 mm | - | 20 W/m² | - |
| 1778300166 | 5° C | 98% | 1019.6 hPa | 0 mm | - | 13 W/m² | - |
| 1778299236 | 5° C | 97% | 1019.5 hPa | 0 mm | - | 7 W/m² | - |
| 1778298367 | 5° C | 97% | 1019.7 hPa | 0 mm | - | 2 W/m² | - |
| 1778297437 | 5° C | 97% | 1019.6 hPa | 0 mm | - | 0 W/m² | - |
| 1778296569 | 5.56° C | 97% | 1019.8 hPa | 0 mm | - | 0 W/m² | - |
| 1778295639 | 5.56° C | 97% | 1019.8 hPa | 0 mm | - | 0 W/m² | - |
| 1778294771 | 5.56° C | 97% | 1020 hPa | 0 mm | - | 0 W/m² | - |
| 1778293841 | 5.56° C | 97% | 1020 hPa | 0 mm | - | 0 W/m² | - |
| 1778292973 | 5.56° C | 96% | 1019.9 hPa | 0 mm | - | 0 W/m² | - |
* Rain latest hour (hover to see other rain measurements)
** Current wind speed in m/s (hover to see current wind gust speed)